Showing default

PATHFINDER 1, 41787

Orbit data source: Space-Track

PATHFINDER 1, 41787 is a payload satellite owned by BlackSky Global (US) in SSO that was launched on Mon, 26 Sep 2016 UTC via a PSLV launch vehicle from the Sirharikota (SRI). Payloads include a variety of satellites, spacecraft, and rockets equipped with specific instruments for various scientific and technological missions. These include communications satellites like Starlink; space stations such as the ISS; scientific satellites like the Hubble; Earth observation satellites from companies like Planet Labs, Umbra, and HawkEye 360; GPS; miniature CubeSats for education and research; and military/defense satellites.

Loading next visibility...
PATHFINDER 1 details
Identifier
41787, 2016-059E
Orbit
SSO
Last TLE update12 hours ago
Origin
Flag of USBlackSky Global (US)
ManufacturerSpaceflight Ind
MissionOperational Commercial Imaging
Bus & MotorBSKY, Unknown motor
Mass~44 kg wet, 44 kg dry
Launch date (UTC)
2016-09-26 (8 years ago)
Launch vehicle
PSLV
Launch site
Sirharikota (SRI)
Object type
Payload
Rocket body
Debris
Shape & HBRBox, 1 m
Radar Cross Section1.000 m², Medium (>0.1 m² and < 1m²)

Expand to show TLE details & history

TLE from 12 hours ago
0 PATHFINDER 1
1 41787U 16059E   24336.79570826  .00002416  00000-0  44394-3 0  9990
2 41787  97.8209 351.0884 0028688 195.4444 164.5888 14.66271653437258
Epoch: 2024-12-01T19:05Z
Definitive object data (Epoch: 2024-12-01T19:05:49.193Z)
Latitude-0.00005°
Longitude-6.49535°
Altitude695.51 km
Speed7.498 km/s
True Right ascension23h 24m 21s
True Declination0° 00' 00"
Sunlit
Object was in daylight at TLE epoch
Visualization TLE readout
Latitude45.42339°
Longitude-178.04632°
Altitude669.671 km
Speed7.532 km/s
Apparent Right ascension14h 26m 17s
Apparent Declination6° 44' 28"
Sunlit
Object is in daylight
Visualization observer readout
Local Sidereal Time04:56:23
Azimuth45.455° ENE
Elevation-31.921°
Doppler factor1
Orbital elements
Apogee altitude690.271 km
Perigee altitude649.831 km
Semi-major axis7,048.188 km
Eccentricity0.0028688
Inclination97.8209°
RAAN351.0884°
Arg. of periapsis195.4444°
True anomaly164.67586°
Mean anomaly164.5888°
Eccentric anomaly164.63236°
Mean motion3.66798 °/min
BSTAR0.00044394
Orbital period98.15 mins
Loading maneuver chart data...
Loading historical data...
Loading historical data...
Loading historical data...
Loading historical data...
Loading historical data...
Loading historical data...
Loading historical data...

PATHFINDER 1 Visibility forecast

Observer location: undefined°, undefined

Span
Click to sort rows by Start time (UTC) header in descending order
Start Az.
Max El. time (UTC)
Max El. Az.
Max El.
End time (UTC)
End Az.
8 mins2024-12-02 13:41:22.324Z24.932° NE2024-12-02 13:45:22.324Z110.728° ESE38.13°2024-12-02 13:49:22.324Z176.141° S
4 mins2024-12-02 15:20:22.324Z318.168° NNW2024-12-02 15:22:22.324Z288.395° WNW14.499°2024-12-02 15:24:22.324Z261.757° W
7 mins2024-12-03 00:43:22.324Z134.731° SE2024-12-03 00:46:22.324Z60.34° ENE35.378°2024-12-03 00:50:22.324Z0.807° NNE
4 mins2024-12-03 02:22:22.324Z250.881° W2024-12-03 02:23:22.324Z266.422° W16.414°2024-12-03 02:26:22.324Z307.464° NW
|